TimeCEST,TemperatureF,Dew PointF,Humidity,Sea Level PressureIn,VisibilityMPH,Wind Direction,Wind SpeedMPH,Gust SpeedMPH,PrecipitationIn,Events,Conditions,WindDirDegrees,DateUTC
12:20 AM,60.8,59.0,94,30.12,1.2,Variable,1.2,-,N/A,Fog,Fog,0,2013-10-24 22:20:00
12:50 AM,60.8,59.0,94,30.12,3.7,North,2.3,-,N/A,Fog,Fog,360,2013-10-24 22:50:00
1:20 AM,60.8,60.8,100,30.12,3.7,NNE,2.3,-,N/A,Fog,Fog,30,2013-10-24 23:20:00
1:50 AM,60.8,59.0,94,30.12,3.7,Variable,2.3,-,N/A,Fog,Fog,0,2013-10-24 23:50:00
2:20 AM,60.8,59.0,94,30.12,3.7,North,3.5,-,N/A,Fog,Fog,10,2013-10-25 00:20:00
2:50 AM,60.8,59.0,94,30.09,-9999.0,North,5.8,-,N/A,,Clear,10,2013-10-25 00:50:00
3:20 AM,60.8,60.8,100,30.09,-9999.0,North,4.6,-,N/A,,Clear,360,2013-10-25 01:20:00
3:50 AM,60.8,59.0,94,30.09,-9999.0,North,3.5,-,N/A,,Clear,10,2013-10-25 01:50:00
4:20 AM,60.8,59.0,94,30.09,-9999.0,North,4.6,-,N/A,,Clear,360,2013-10-25 02:20:00
4:50 AM,60.8,59.0,94,30.09,-9999.0,North,4.6,-,N/A,,Clear,360,2013-10-25 02:50:00
5:20 AM,60.8,59.0,94,30.09,-9999.0,North,4.6,-,N/A,,Clear,360,2013-10-25 03:20:00
5:50 AM,62.6,59.0,88,30.09,-9999.0,North,6.9,-,N/A,,Clear,360,2013-10-25 03:50:00
6:20 AM,62.6,59.0,88,30.09,-9999.0,North,5.8,-,N/A,,Clear,360,2013-10-25 04:20:00
6:50 AM,62.6,59.0,88,30.09,-9999.0,North,6.9,-,N/A,,Clear,360,2013-10-25 04:50:00
7:20 AM,62.6,59.0,88,30.09,-9999.0,North,4.6,-,N/A,,Clear,350,2013-10-25 05:20:00
7:50 AM,62.6,59.0,88,30.09,-9999.0,North,4.6,-,N/A,,Clear,360,2013-10-25 05:50:00
8:20 AM,62.6,59.0,88,30.09,-9999.0,North,4.6,-,N/A,,Clear,360,2013-10-25 06:20:00
8:50 AM,64.4,60.8,88,30.09,-9999.0,North,3.5,-,N/A,,Clear,360,2013-10-25 06:50:00
9:20 AM,66.2,60.8,83,30.09,-9999.0,North,3.5,-,N/A,,Clear,360,2013-10-25 07:20:00
9:50 AM,69.8,62.6,78,30.09,-9999.0,Variable,2.3,-,N/A,,Clear,0,2013-10-25 07:50:00
10:20 AM,73.4,62.6,69,30.12,-9999.0,Variable,2.3,-,N/A,,Clear,0,2013-10-25 08:20:00
10:50 AM,75.2,62.6,65,30.12,-9999.0,Calm,Calm,-,N/A,,Clear,0,2013-10-25 08:50:00
11:20 AM,77.0,60.8,57,30.12,-9999.0,Variable,1.2,-,N/A,,Clear,0,2013-10-25 09:20:00
11:50 AM,78.8,59.0,51,30.12,-9999.0,Variable,1.2,-,N/A,,Clear,0,2013-10-25 09:50:00
12:20 PM,80.6,55.4,42,30.09,-9999.0,Variable,2.3,-,N/A,,Clear,0,2013-10-25 10:20:00
12:50 PM,82.4,55.4,39,30.09,-9999.0,Variable,1.2,-,N/A,,Clear,0,2013-10-25 10:50:00
1:20 PM,82.4,55.4,39,30.09,-9999.0,Variable,2.3,-,N/A,,Clear,0,2013-10-25 11:20:00
1:50 PM,84.2,55.4,37,30.09,-9999.0,Variable,2.3,-,N/A,,Clear,0,2013-10-25 11:50:00
2:20 PM,84.2,55.4,37,30.06,-9999.0,South,3.5,-,N/A,,Clear,190,2013-10-25 12:20:00
2:50 PM,78.8,60.8,54,30.06,-9999.0,WNW,10.4,-,N/A,,Clear,290,2013-10-25 12:50:00
3:20 PM,80.6,57.2,45,30.06,-9999.0,West,6.9,-,N/A,,Clear,280,2013-10-25 13:20:00
3:50 PM,82.4,60.8,48,30.06,-9999.0,NW,3.5,-,N/A,,Clear,320,2013-10-25 13:50:00
4:20 PM,80.6,64.4,58,30.06,-9999.0,NNE,5.8,-,N/A,,Clear,20,2013-10-25 14:20:00
4:50 PM,78.8,62.6,57,30.06,-9999.0,NNE,6.9,-,N/A,,Clear,30,2013-10-25 14:50:00
5:20 PM,78.8,64.4,61,30.06,-9999.0,NNE,8.1,-,N/A,,Clear,20,2013-10-25 15:20:00
5:50 PM,77.0,64.4,65,30.06,-9999.0,NNE,6.9,-,N/A,,Clear,20,2013-10-25 15:50:00
6:20 PM,73.4,66.2,78,30.06,-9999.0,NNE,6.9,-,N/A,,Clear,20,2013-10-25 16:20:00
6:50 PM,71.6,66.2,83,30.09,-9999.0,NNE,8.1,-,N/A,,Clear,30,2013-10-25 16:50:00
7:20 PM,71.6,66.2,83,30.09,-9999.0,NNE,8.1,-,N/A,,Clear,30,2013-10-25 17:20:00
7:50 PM,69.8,66.2,88,30.09,-9999.0,NNE,6.9,-,N/A,,Clear,30,2013-10-25 17:50:00
8:20 PM,69.8,66.2,88,30.09,-9999.0,NNE,4.6,-,N/A,,Clear,20,2013-10-25 18:20:00
8:50 PM,69.8,66.2,88,30.12,-9999.0,Variable,2.3,-,N/A,,Clear,0,2013-10-25 18:50:00
9:50 PM,66.2,64.4,94,30.12,5.0,Variable,1.2,-,N/A,,Unknown,0,2013-10-25 19:50:00
10:20 PM,66.2,64.4,94,30.12,5.0,NNE,3.5,-,N/A,,Unknown,20,2013-10-25 20:20:00
10:50 PM,64.4,64.4,100,30.12,3.7,Variable,2.3,-,N/A,,Unknown,0,2013-10-25 20:50:00
11:20 PM,64.4,62.6,94,30.12,3.7,North,2.3,-,N/A,,Unknown,10,2013-10-25 21:20:00
11:50 PM,62.6,60.8,94,30.12,3.7,NNE,4.6,-,N/A,,Unknown,30,2013-10-25 21:50:00